This is the latest recevied weather packets stored in our database for station/object KE5WTH-14. If no packets are shown the sender has not sent any weather packets the latest 1 day(s).
| Time | Temp. | Humidity | Pressure | Rain* | Wind** | Luminosity | Snow |
|---|---|---|---|---|---|---|---|
| 1778046835 | 14.44° C | 78% | 1010.1 hPa | 0 mm | 2.68 m/s, 0° | 0 W/m² | - |
| 1778046781 | 14.44° C | 78% | 1010.2 hPa | 0 mm | 2.68 m/s, 0° | 0 W/m² | - |
| 1778046708 | 14.44° C | 78% | 1010.1 hPa | 0 mm | 3.13 m/s, 21° | 0 W/m² | - |
| 1778046648 | 14.44° C | 78% | 1010.1 hPa | 0 mm | 3.13 m/s, 0° | 0 W/m² | - |
| 1778046586 | 14.44° C | 78% | 1010.1 hPa | 0 mm | 2.68 m/s, 4° | 0 W/m² | - |
| 1778046525 | 14.44° C | 78% | 1010.1 hPa | 0 mm | 2.68 m/s, 357° | 0 W/m² | - |
| 1778046463 | 14.44° C | 78% | 1010.1 hPa | 0 mm | 3.58 m/s, 0° | 0 W/m² | - |
| 1778046410 | 14.44° C | 78% | 1010.2 hPa | 0 mm | 4.02 m/s, 4° | 0 W/m² | - |
| 1778046379 | 14.44° C | 78% | 1010.2 hPa | 0 mm | 4.02 m/s, 0° | 0 W/m² | - |
| 1778046348 | 14.44° C | 78% | 1010.1 hPa | 0 mm | 3.58 m/s, 0° | 0 W/m² | - |
| 1778046318 | 14.44° C | 78% | 1010.1 hPa | 0 mm | 3.58 m/s, 6° | 0 W/m² | - |
| 1778046154 | 14.44° C | 78% | 1010.1 hPa | 0 mm | 4.02 m/s, 4° | 0 W/m² | - |
| 1778046095 | 14.44° C | 78% | 1010 hPa | 0 mm | 3.58 m/s, 11° | 0 W/m² | - |
| 1778046035 | 14.44° C | 78% | 1010.1 hPa | 0 mm | 3.13 m/s, 0° | 0 W/m² | - |
| 1778045971 | 14.44° C | 78% | 1010 hPa | 0 mm | 4.02 m/s, 0° | 0 W/m² | - |
| 1778045915 | 14.44° C | 78% | 1010.1 hPa | 0 mm | 4.47 m/s, 4° | 0 W/m² | - |
| 1778045857 | 14.44° C | 78% | 1010 hPa | 0 mm | 4.02 m/s, 7° | 0 W/m² | - |
| 1778045794 | 14.44° C | 78% | 1010 hPa | 0 mm | 4.02 m/s, 7° | 0 W/m² | - |
| 1778045736 | 14.44° C | 78% | 1010 hPa | 0 mm | 4.02 m/s, 16° | 0 W/m² | - |
| 1778045675 | 14.44° C | 78% | 1010 hPa | 0 mm | 3.58 m/s, 354° | 0 W/m² | - |
| 1778045615 | 14.44° C | 78% | 1010 hPa | 0 mm | 4.02 m/s, 42° | 0 W/m² | - |
| 1778045556 | 14.44° C | 78% | 1010 hPa | 0 mm | 4.02 m/s, 4° | 0 W/m² | - |
| 1778045496 | 14.44° C | 78% | 1010 hPa | 0 mm | 4.02 m/s, 348° | 0 W/m² | - |
| 1778045467 | 15° C | 78% | 1010 hPa | 0 mm | 4.02 m/s, 336° | 0 W/m² | - |
| 1778045442 | 15° C | 78% | 1010 hPa | 0 mm | 4.02 m/s, 343° | 0 W/m² | - |
* Rain latest hour (hover to see other rain measurements)
** Current wind speed in m/s (hover to see current wind gust speed)